Regional Weather Roundup
Issued by NWS

Home | Current Version | Previous Version | Graphics & Text | Print | Product List | Glossary On
Versions: 1 2 3 4 5 6 7 8 9 10 11 12 13 14 15 16 17 18 19 20 21 22 23 24 25 26 27 28 29 30 31 32 33 34 35 36 37 38 39 40 41 42 43 44 45 46 47 48 49 50
000
ASUS45 KABQ 251610
RWRNM
WEATHER ROUNDUP FOR NEW MEXICO
NATIONAL WEATHER SERVICE ALBUQUERQUE NM
900 AM MST SUN JAN 25 2015

NOTE: "FAIR" MEANS FEW OR NO CLOUDS BELOW 12,000 FEET AGL WITH NO
       SIGNIFICANT WEATHER OR OBSTRUCTIONS TO VISION.

      THIS PRODUCT IS RELEASED AS TWO VERSIONS.  ONE VERSION NEAR
      THE TOP OF THE HOUR CONTAINING PRELIMINARY DATA FROM ALBUQUERQUE
      AND OTHER STATIONS.  A FINAL VERSION WITH ADDITIONAL DATA IS
      ISSUED ABOUT 10 MINUTES AFTER THE HOUR.

NMZ501-503-504-510>518-251700-
NORTHWEST PLATEAU/NORTHCENTRAL MOUNTAINS

CITY           SKY/WX    TMP DP  RH WIND       PRES   REMARKS
FARMINGTON     SUNNY     26  18  71 E8        30.35R WCI  18
LOS ALAMOS     SUNNY     39  18  42 N12       30.30S WCI  31
SANTA FE       SUNNY     32  17  54 NE8       30.29R WCI  25
TAOS           SUNNY     28  18  64 CALM      30.34S
ANGEL FIRE     FAIR      15  10  82 CALM      30.31S

$$
NMZ402-403-502-505>509-251700-
WESTCENTRAL MOUNTAINS/SOUTHWEST MOUNTAINS

CITY           SKY/WX    TMP DP  RH WIND       PRES   REMARKS
GALLUP         SUNNY     28  19  69 CALM      30.34R
GRANTS         SUNNY     27  21  77 NW6       30.35R WCI  20
SILVER CITY    PTSUNNY   41  19  42 N5        30.28R

$$
NMZ407-409-411-412-251700-
SOUTHERN DESERTS

CITY           SKY/WX    TMP DP  RH WIND       PRES   REMARKS
LORDSBURG      FAIR      34  25  69 S5        30.27R WCI  30
DEMING         PTSUNNY   36  24  62 S3        30.27R
LAS CRUCES     PTSUNNY   42  25  51 N12       30.27R
HOLLOMAN AFB   PTSUNNY   30  25  81 S2        30.26R
ALAMOGORDO     PTSUNNY   32  25  74 S5        30.28R WCI  27
T OR C         PTSUNNY   36  23  59 N3        30.29R

$$
NMZ519>523-251700-
CENTRAL VALLEYS/CENTRAL HIGHLANDS

CITY           SKY/WX    TMP DP  RH WIND       PRES   REMARKS
ALBUQUERQUE    MOSUNNY   34  20  56 NW6       30.32R WCI  29
DOUBLE EAGLE   SUNNY     36  18  48 CALM      30.32R
MORIARTY ARPT  FAIR      31  22  70 CALM      30.31R
CLINES CORNERS SUNNY     31  17  56 NW18      30.25R WCI  19
BELEN          FAIR      32  24  73 NW3       30.32R
SOCORRO        FAIR      34  24  66 N15       30.31R WCI  25

$$
NMZ524>526-539-540-251700-
SOUTHCENTRAL MOUNTAINS

CITY           SKY/WX    TMP DP  RH WIND       PRES   REMARKS
RUIDOSO        SUNNY     37  16  41 SE7       30.33R WCI  32

$$
NMZ527>531-251700-
NORTHEAST HIGHLANDS/NORTHEAST PLAINS

CITY           SKY/WX    TMP DP  RH WIND       PRES   REMARKS
LAS VEGAS      MOSUNNY   36  16  44 S12       30.25R WCI  28
RATON          SUNNY     31  23  72 NE6       30.23S WCI  25
CLAYTON        SUNNY     40  27  59 NW8       30.21S WCI  34

$$
NMZ532>537-251700-
EASTCENTRAL PLAINS

CITY           SKY/WX    TMP DP  RH WIND       PRES   REMARKS
TUCUMCARI      MOSUNNY   35  27  72 W8        30.26R WCI  29
CANNON AFB     MOSUNNY   38  27  63 NW7       30.26R WCI  33
CLOVIS AIRPORT SUNNY     39  28  65 N10       30.25R WCI  32

$$
NMZ028-029-538-251700-
SOUTHEAST PLAINS

CITY           SKY/WX    TMP DP  RH WIND       PRES   REMARKS
ROSWELL        MOSUNNY   39  30  70 W5        30.30R
ARTESIA        MOSUNNY   37  30  75 W9        30.31R WCI  31
CARLSBAD       PTSUNNY   48  30  49 NW12      30.29R
HOBBS          SUNNY     37  32  81 NW8       30.27R WCI  31


$$



USA.gov is the U.S. government's official web portal to all federal, state and local government web resources and services.